COSMOS 2270

Satellite information

Favourite Embed

Satellite Type and Status

PAYLOADIN ORBIT

Key statistics

Satellite COSMOS 2270 at a glance.

Uptime

11582

Days in orbit

Revolutions

≈ 12.6

Per day

Orbit

LEO

Low Earth Orbit

Inclination

82.6

Latest

Satellite identification and parameters

Extended collection of information and parameters for COSMOS 2270.

Object identification

Identified? True

Debris? False

Object name: COSMOS 2270

International designator: 1994-011C

Object number (NORAD): 23001

Object ID (CCSDS): 23001

Country: COMMONWEALTH OF INDEPENDENT STATES (CIS)

Current information (Y/N): Y

RCS size: LARGE

Orbital parameters

Period: 114.021 minutes

Inclination: 82.5691 deg

SMA: 7789.021 km

Apoapsis: 1416.387 km

Periapsis: 1405.385 km

RAAN: 101.9606 deg

Eccentricy: 0.00070626

Argument of periapsis: 351.3352 deg

Mean anomaly: 62.4394 deg

Mean motion: 12.62927571 rev/day

Mean motion (dot): 0.0000003 rev/day2

B* drag term: 0.00010641543 1/REarth

Two-line elements (TLE)

Creation date: Oct. 28, 2025, 7:11 p.m.

Reference frame: TEME

Reference center: EARTH

Epoch: Oct. 28, 2025, 11:04 a.m. UTC

TLE line 0: 0 COSMOS 2270

TLE line 1: 1 23001U 94011C 25301.46153001 .00000030 00000-0 10642-3 0 9991

TLE line 2: 2 23001 82.5691 101.9606 0007063 351.3352 62.4394 12.62927571461405

Live tracking on map

Real-time ground track for satellite COSMOS 2270.

In-orbit conjunctions

A list of the most updated potential collisions computed for object COSMOS 2270.

Target Orbit TCA Probability of collision Miss distance Type
COSMOS 2117 LEO 2025-09-10 22:25:44 0.03833542 41.0 (m) PAYLOAD

Associated space launch

Second generation store-dump military communications satellites

COSMOS 2270 was lifted into orbit during the mission ‘Tsiklon-3 | Strela-3 101 to 106’, on board a Tsiklon-3 space rocket.

The launch took place on Feb. 12, 1994, 8:54 a.m. from 32/1.

For more information about the launch, click the button.

Launch to space Tsiklon-3 | Strela-3 101 to 106
Tsiklon-3 | Strela-3 101 to 106

Agency: N/A

Status: Launch Successful

Launch date: Feb. 12, 1994, 8:54 a.m. UTC

Rocket: Tsiklon-3

Launch pad: 32/1

Location: Plesetsk Cosmodrome, Russian Federation

...

Latest news about this satellite

There are no fresh news available about this satellite. Check back as we update our databases every day.


Newsletter sign-up

Weekly statistics, charts and insights to help you stay on top of the space industry.